N2500A TNCC-TNCA

Flight info

Callsign N2500A
Flight time 0h 38m
Altitude 7000
Route ARUB1K ELUMO DCT DAVLA DCT BOMDA
Aircraft C208/L-SDFGR/C

Departure

Time 2026-04-20 05:35
Airport Hato International Airport (TNCC)

Arrival

Time 2026-04-20 06:13
Airport Queen Beatrix International Airport (TNCA)
Time Latitude Longitude Altitude Speed Heading
2026-04-20 05:21 12.18772 -68.96804 25 ft 0 kts 190°
2026-04-20 05:32 12.18770 -68.96805 25 ft 1 kts 221°
2026-04-20 05:32 12.18776 -68.96814 25 ft 1 kts 333°
2026-04-20 05:32 12.18817 -68.96797 25 ft 7 kts 18°
2026-04-20 05:33 12.18863 -68.96790 25 ft 5 kts
2026-04-20 05:33 12.18895 -68.96802 25 ft 12 kts 334°
2026-04-20 05:33 12.18974 -68.96808 27 ft 6 kts
2026-04-20 05:33 12.19021 -68.96794 26 ft 11 kts 28°
2026-04-20 05:34 12.19053 -68.96768 25 ft 8 kts 64°
2026-04-20 05:34 12.19034 -68.96653 27 ft 35 kts 101°
2026-04-20 05:34 12.18841 -68.95462 204 ft 116 kts 103°
2026-04-20 05:35 12.18646 -68.94687 681 ft 110 kts 102°
2026-04-20 05:35 12.18487 -68.93927 1158 ft 109 kts 100°
2026-04-20 05:35 12.18324 -68.93170 1643 ft 109 kts 100°
2026-04-20 05:35 12.18164 -68.92417 2123 ft 108 kts 100°
2026-04-20 05:36 12.18007 -68.91676 2600 ft 105 kts 100°
2026-04-20 05:36 12.17856 -68.90959 3067 ft 101 kts 100°
2026-04-20 05:36 12.17712 -68.90276 3532 ft 96 kts 100°
2026-04-20 05:36 12.17538 -68.89638 3986 ft 93 kts 116°
2026-04-20 05:37 12.17016 -68.89262 4447 ft 96 kts 157°
2026-04-20 05:37 12.16343 -68.89351 4816 ft 110 kts 204°
2026-04-20 05:37 12.15735 -68.89969 5002 ft 135 kts 226°
2026-04-20 05:37 12.15058 -68.90720 5190 ft 151 kts 223°
2026-04-20 05:38 12.14319 -68.91529 5376 ft 160 kts 224°
2026-04-20 05:38 12.13541 -68.92380 5548 ft 167 kts 225°
2026-04-20 05:38 12.12741 -68.93251 5712 ft 169 kts 225°
2026-04-20 05:38 12.11924 -68.94138 5871 ft 173 kts 224°
2026-04-20 05:39 12.11093 -68.95039 6024 ft 175 kts 225°
2026-04-20 05:39 12.10266 -68.95938 6174 ft 177 kts 225°
2026-04-20 05:39 12.09418 -68.96860 6325 ft 178 kts 225°
2026-04-20 05:39 12.08565 -68.97785 6469 ft 179 kts 225°
2026-04-20 05:40 12.07715 -68.98708 6607 ft 179 kts 226°
2026-04-20 05:40 12.06871 -68.99636 6749 ft 178 kts 229°
2026-04-20 05:40 12.06318 -69.00759 6872 ft 179 kts 257°
2026-04-20 05:40 12.06272 -69.02022 6980 ft 181 kts 281°
2026-04-20 05:41 12.06647 -69.03270 6989 ft 186 kts 290°
2026-04-20 05:41 12.07053 -69.04544 6997 ft 190 kts 289°
2026-04-20 05:41 12.07453 -69.05837 6998 ft 191 kts 289°
2026-04-20 05:41 12.07855 -69.07124 6998 ft 190 kts 289°
2026-04-20 05:42 12.08259 -69.08413 6994 ft 190 kts 289°
2026-04-20 05:42 12.08660 -69.09693 6981 ft 191 kts 289°
2026-04-20 05:42 12.09061 -69.10974 6976 ft 190 kts 289°
2026-04-20 05:42 12.09464 -69.12262 6978 ft 190 kts 289°
2026-04-20 05:43 12.09866 -69.13553 6976 ft 190 kts 289°
2026-04-20 05:43 12.10270 -69.14842 6975 ft 191 kts 289°
2026-04-20 05:43 12.10673 -69.16133 6972 ft 190 kts 289°
2026-04-20 05:43 12.11077 -69.17421 6974 ft 190 kts 289°
2026-04-20 05:44 12.11479 -69.18710 6976 ft 190 kts 289°
2026-04-20 05:44 12.11882 -69.19996 6974 ft 190 kts 289°
2026-04-20 05:44 12.12286 -69.21285 6972 ft 190 kts 289°
2026-04-20 05:44 12.12686 -69.22566 6971 ft 189 kts 289°
2026-04-20 05:45 12.13086 -69.23848 6970 ft 189 kts 289°
2026-04-20 05:45 12.13485 -69.25128 6969 ft 189 kts 289°
2026-04-20 05:45 12.13886 -69.26408 6968 ft 189 kts 289°
2026-04-20 05:45 12.14286 -69.27688 6966 ft 189 kts 289°
2026-04-20 05:46 12.14687 -69.28969 6963 ft 189 kts 289°
2026-04-20 05:46 12.15087 -69.30248 6962 ft 189 kts 289°
2026-04-20 05:46 12.15485 -69.31527 6960 ft 189 kts 289°
2026-04-20 05:46 12.15884 -69.32805 6959 ft 189 kts 289°
2026-04-20 05:47 12.16282 -69.34082 6960 ft 188 kts 289°
2026-04-20 05:47 12.16676 -69.35343 6960 ft 189 kts 290°
2026-04-20 05:47 12.17084 -69.36628 6961 ft 191 kts 290°
2026-04-20 05:47 12.17484 -69.37932 6961 ft 193 kts 290°
2026-04-20 05:48 12.17889 -69.39237 6961 ft 193 kts 290°
2026-04-20 05:48 12.18299 -69.40544 6960 ft 194 kts 290°
2026-04-20 05:48 12.18706 -69.41857 6959 ft 194 kts 290°
2026-04-20 05:48 12.19113 -69.43169 6960 ft 194 kts 290°
2026-04-20 05:49 12.19536 -69.44500 6959 ft 194 kts 291°
2026-04-20 05:49 12.19940 -69.45790 6958 ft 192 kts 290°
2026-04-20 05:49 12.20340 -69.47097 6958 ft 193 kts 289°
2026-04-20 05:49 12.20761 -69.48397 6961 ft 193 kts 289°
2026-04-20 05:50 12.21098 -69.49715 6957 ft 191 kts 282°
2026-04-20 05:50 12.21494 -69.51005 6955 ft 190 kts 293°
2026-04-20 05:50 12.21959 -69.52276 6955 ft 192 kts 291°
2026-04-20 05:50 12.22372 -69.53579 6956 ft 193 kts 290°
2026-04-20 05:51 12.22769 -69.54895 6958 ft 194 kts 290°
2026-04-20 05:51 12.23172 -69.56208 6959 ft 193 kts 290°
2026-04-20 05:51 12.23577 -69.57512 6958 ft 192 kts 290°
2026-04-20 05:51 12.23984 -69.58810 6960 ft 191 kts 293°
2026-04-20 05:52 12.24412 -69.60094 6959 ft 190 kts 289°
2026-04-20 05:52 12.24789 -69.61387 6959 ft 189 kts 289°
2026-04-20 05:52 12.25179 -69.62674 6956 ft 189 kts 289°
2026-04-20 05:52 12.25579 -69.63956 6955 ft 189 kts 287°
2026-04-20 05:53 12.25987 -69.65212 6956 ft 189 kts 290°
2026-04-20 05:53 12.26396 -69.66496 6956 ft 191 kts 289°
2026-04-20 05:53 12.26788 -69.67793 6957 ft 190 kts 290°
2026-04-20 05:53 12.27205 -69.69072 6955 ft 189 kts 290°
2026-04-20 05:54 12.27630 -69.70344 6957 ft 189 kts 290°
2026-04-20 05:54 12.28046 -69.71617 6954 ft 189 kts 290°
2026-04-20 05:54 12.28459 -69.72893 6954 ft 190 kts 291°
2026-04-20 05:54 12.28880 -69.74175 6957 ft 190 kts 291°
2026-04-20 05:55 12.29303 -69.75458 6956 ft 191 kts 291°
2026-04-20 05:55 12.29728 -69.76745 6959 ft 191 kts 290°
2026-04-20 05:55 12.30145 -69.78036 6963 ft 191 kts 290°
2026-04-20 05:55 12.30563 -69.79329 6964 ft 191 kts 290°
2026-04-20 05:56 12.30982 -69.80617 6966 ft 191 kts 290°
2026-04-20 05:56 12.31404 -69.81905 6967 ft 191 kts 290°
2026-04-20 05:56 12.31818 -69.83174 6967 ft 191 kts 291°
2026-04-20 05:56 12.32242 -69.84468 6966 ft 192 kts 291°
2026-04-20 05:57 12.32665 -69.85765 6972 ft 192 kts 291°
2026-04-20 05:57 12.33087 -69.87062 6975 ft 192 kts 291°
2026-04-20 05:57 12.33505 -69.88352 6975 ft 191 kts 291°
2026-04-20 05:57 12.33925 -69.89637 6977 ft 191 kts 291°
2026-04-20 05:58 12.34344 -69.90924 6975 ft 191 kts 291°
2026-04-20 05:58 12.34764 -69.92212 6976 ft 191 kts 291°
2026-04-20 05:58 12.35184 -69.93501 6976 ft 191 kts 291°
2026-04-20 05:58 12.35603 -69.94788 6976 ft 191 kts 291°
2026-04-20 05:59 12.36021 -69.96073 6978 ft 190 kts 291°
2026-04-20 05:59 12.36439 -69.97356 6976 ft 190 kts 291°
2026-04-20 05:59 12.36860 -69.98641 6977 ft 191 kts 291°
2026-04-20 05:59 12.37282 -69.99936 6980 ft 193 kts 290°
2026-04-20 06:00 12.37705 -70.01238 6983 ft 193 kts 290°
2026-04-20 06:00 12.38129 -70.02539 6984 ft 193 kts 291°
2026-04-20 06:00 12.38552 -70.03848 6943 ft 196 kts 290°
2026-04-20 06:00 12.38974 -70.05142 6715 ft 184 kts 291°
2026-04-20 06:01 12.39374 -70.06353 6472 ft 177 kts 290°
2026-04-20 06:01 12.39759 -70.07535 6220 ft 174 kts 290°
2026-04-20 06:01 12.40140 -70.08707 5965 ft 172 kts 290°
2026-04-20 06:01 12.40517 -70.09865 5716 ft 171 kts 290°
2026-04-20 06:02 12.40889 -70.11009 5476 ft 172 kts 290°
2026-04-20 06:02 12.41266 -70.12170 5228 ft 172 kts 290°
2026-04-20 06:02 12.41648 -70.13350 4984 ft 173 kts 290°
2026-04-20 06:02 12.42023 -70.14501 4750 ft 173 kts 290°
2026-04-20 06:03 12.42400 -70.15665 4502 ft 172 kts 290°
2026-04-20 06:03 12.42784 -70.16842 4246 ft 172 kts 289°
2026-04-20 06:03 12.43157 -70.17992 4013 ft 172 kts 289°
2026-04-20 06:03 12.43524 -70.19120 3983 ft 162 kts 289°
2026-04-20 06:04 12.43874 -70.20199 3970 ft 158 kts 290°
2026-04-20 06:04 12.44285 -70.21226 3967 ft 154 kts 309°
2026-04-20 06:04 12.45151 -70.21740 3969 ft 143 kts
2026-04-20 06:04 12.46003 -70.21413 3969 ft 129 kts 53°
2026-04-20 06:05 12.46469 -70.20663 3979 ft 127 kts 46°
2026-04-20 06:05 12.47164 -70.20103 3981 ft 127 kts 55°
2026-04-20 06:05 12.47673 -70.19360 3865 ft 127 kts 58°
2026-04-20 06:05 12.48189 -70.18634 3630 ft 125 kts 56°
2026-04-20 06:06 12.48719 -70.17944 3370 ft 122 kts 55°
2026-04-20 06:06 12.49253 -70.17270 3073 ft 122 kts 54°
2026-04-20 06:06 12.49788 -70.16606 2776 ft 119 kts 54°
2026-04-20 06:06 12.50307 -70.15963 2456 ft 115 kts 55°
2026-04-20 06:07 12.50813 -70.15337 2154 ft 113 kts 56°
2026-04-20 06:07 12.51311 -70.14721 1880 ft 110 kts 54°
2026-04-20 06:07 12.51761 -70.14173 1841 ft 93 kts 56°
2026-04-20 06:07 12.52143 -70.13703 1846 ft 83 kts 57°
2026-04-20 06:08 12.52491 -70.13272 1844 ft 73 kts 57°
2026-04-20 06:08 12.52586 -70.12819 1808 ft 64 kts 91°
2026-04-20 06:08 12.52559 -70.12391 1751 ft 62 kts 102°
2026-04-20 06:08 12.52496 -70.11955 1696 ft 60 kts 98°
2026-04-20 06:09 12.52431 -70.11484 1828 ft 74 kts 99°
2026-04-20 06:09 12.52339 -70.10928 2020 ft 95 kts 99°
2026-04-20 06:09 12.52209 -70.10281 1916 ft 80 kts 99°
2026-04-20 06:09 12.52092 -70.09756 1713 ft 74 kts 102°
2026-04-20 06:10 12.51968 -70.09253 1507 ft 72 kts 98°
2026-04-20 06:10 12.51864 -70.08735 1325 ft 76 kts 101°
2026-04-20 06:10 12.51717 -70.08238 1209 ft 73 kts 101°
2026-04-20 06:10 12.51623 -70.07694 999 ft 77 kts 100°
2026-04-20 06:11 12.51505 -70.07172 904 ft 74 kts 98°
2026-04-20 06:11 12.51389 -70.06666 816 ft 73 kts 101°
2026-04-20 06:11 12.51264 -70.06144 720 ft 78 kts 100°
2026-04-20 06:11 12.51138 -70.05594 615 ft 80 kts 104°
2026-04-20 06:12 12.51010 -70.05066 517 ft 76 kts 105°
2026-04-20 06:12 12.50878 -70.04576 450 ft 70 kts 105°
2026-04-20 06:12 12.50759 -70.04084 321 ft 72 kts 106°
2026-04-20 06:12 12.50640 -70.03611 214 ft 65 kts 101°
2026-04-20 06:13 12.50527 -70.03155 124 ft 64 kts 98°
2026-04-20 06:13 12.50422 -70.02711 38 ft 64 kts 97°
2026-04-20 06:13 12.50325 -70.02296 18 ft 53 kts 104°
2026-04-20 06:13 12.50279 -70.02103 23 ft 22 kts 102°
2026-04-20 06:14 12.50243 -70.01953 27 ft 22 kts 104°
2026-04-20 06:14 12.50198 -70.01765 29 ft 32 kts 100°
2026-04-20 06:14 12.50142 -70.01536 35 ft 34 kts 101°
2026-04-20 06:14 12.50049 -70.01428 36 ft 21 kts 195°
2026-04-20 06:15 12.49946 -70.01374 38 ft 22 kts 101°
2026-04-20 06:15 12.49889 -70.01383 38 ft 7 kts 288°
2026-04-20 06:15 12.49892 -70.01394 38 ft 0 kts 284°